[[{"header":{"parameterUnit":"m.s-1","parameterCategory":2,"la1":30.2991,"la2":30.254,"lo1":-89.0895,"lo2":-89.0444,"dy":0.0017,"dx":0.0017,"nx":28,"ny":28,"refTime":"2023-10-28T09:00:00:Z","depth":"0","parameterNumber":2,"parameterNumberName":"U-component_of_CURRENTS"},"data":[0,0,0,0,0,0,0,0,0,0,0,0,0,0,0,0,0,0,0,0,0,0,0,0,0,0,0,0,0,0,0,0,0,0,0,0,0,0,0,0,0,0,0,0,0,0,0,0,0,0,0,0,0,0,0,0,0,0,-0.3143,-0.3145,0,-0.3299,-0.3301,-0.3302,-0.3327,-0.3326,-0.3325,-0.3324,-0.3268,-0.3268,-0.3267,0,0,0,0,0,0,0,0,0,0,0,0,0,-0.2962,-0.2964,-0.3143,-0.3145,-0.3147,-0.3299,-0.3301,-0.3303,-0.3327,-0.3326,-0.3325,-0.3323,-0.3268,-0.3268,-0.3267,0,0,0,0,0,0,0,0,0,0,0,0,0,-0.3068,-0.2965,-0.3142,-0.318,-0.3185,-0.3299,-0.3301,-0.3303,-0.3328,-0.3326,-0.3324,-0.3323,-0.3269,-0.3268,-0.3267,-0.3296,0,0,-0.3265,-0.3265,0,0,0,0,0,0,0,0,-0.3062,-0.3074,-0.3172,-0.3178,-0.3184,-0.3295,-0.3217,-0.3291,-0.3328,-0.327,-0.3324,-0.3322,-0.326,-0.326,-0.3292,-0.3294,-0.3291,-0.3265,-0.3265,-0.3264,-0.3264,0,0,0,0,0,0,0,-0.3055,-0.3069,-0.3202,-0.3175,-0.3182,-0.3222,-0.3234,-0.3232,-0.3267,-0.3275,-0.3278,-0.3301,-0.3261,-0.3293,-0.3291,-0.3291,-0.3265,-0.3265,-0.3264,-0.3264,-0.3308,-0.3309,0,0,0,0,0,0,-0.3039,-0.3061,-0.3197,-0.3207,-0.3121,-0.3227,-0.324,-0.3258,-0.3271,-0.3275,-0.3302,-0.3302,-0.3295,-0.3291,-0.3288,-0.3255,-0.3264,-0.3264,-0.3263,-0.3306,-0.3308,-0.331,0,0,0,0,0,0,-0.3034,-0.3049,-0.319,-0.314,-0.3161,-0.3231,-0.3252,-0.3262,-0.328,-0.3295,-0.3292,-0.3307,-0.3294,-0.3289,-0.3301,-0.3255,-0.3263,-0.3263,-0.3304,-0.3307,-0.3309,-0.3231,0,0,0,0,0,0,-0.3028,-0.3046,-0.3046,-0.3139,-0.3163,-0.3216,-0.3254,-0.3267,-0.3299,-0.3299,-0.3298,-0.3293,-0.3292,-0.3302,-0.33,-0.3254,-0.3262,-0.3302,-0.3305,-0.3308,-0.3232,-0.3231,-0.323,0,0,0,0,0,-0.3021,-0.2999,-0.3045,-0.3061,-0.3163,-0.3216,-0.323,-0.3274,-0.33,-0.3288,-0.3328,-0.3292,-0.3319,-0.3304,-0.3301,-0.3253,-0.3301,-0.3304,-0.3308,-0.3232,-0.3231,-0.323,0,0,0,0,0,0,-0.2931,-0.3004,-0.3054,-0.3062,-0.3127,-0.322,-0.3211,-0.327,-0.33,-0.3291,-0.3318,-0.3316,-0.3311,-0.3316,-0.3299,-0.3286,-0.3301,-0.3304,-0.3245,-0.3243,-0.3242,-0.3184,-0.3262,0,0,0,0,0,-0.2916,-0.2905,-0.3011,-0.3016,-0.3039,-0.3135,-0.3164,-0.3202,-0.3252,-0.3264,-0.3286,-0.3309,-0.3331,-0.3313,-0.3333,-0.3317,-0.329,-0.3291,-0.329,-0.3288,-0.3246,-0.3215,-0.3204,-0.3321,-0.3321,-0.3321,0,0,-0.2892,-0.2924,-0.2927,-0.2994,-0.3043,-0.307,-0.3143,-0.3166,-0.3185,-0.3249,-0.3259,-0.3306,-0.3337,-0.3332,-0.3326,-0.3316,-0.3244,-0.3293,-0.329,-0.3248,-0.3217,-0.3205,-0.3194,-0.3324,-0.3323,-0.3323,0,0,-0.282,-0.2859,-0.2831,-0.2876,-0.2939,-0.2997,-0.3002,-0.3096,-0.3118,-0.3159,-0.3221,-0.3244,-0.3274,-0.3285,-0.3296,-0.3302,-0.3257,-0.3317,-0.3227,-0.3198,-0.3186,-0.3175,-0.3118,-0.3103,-0.3293,-0.3293,-0.3292,0,-0.2791,-0.2786,-0.2833,-0.283,-0.2863,-0.2959,-0.2966,-0.3005,-0.3096,-0.3113,-0.3134,-0.3217,-0.3238,-0.3237,-0.3248,-0.3283,-0.3263,-0.3219,-0.3188,-0.3177,-0.3167,-0.3111,-0.3095,-0.3289,-0.329,-0.329,-0.329,0,-0.2712,-0.2725,-0.2704,-0.2735,-0.2769,-0.2779,-0.2861,-0.2889,-0.2942,-0.2995,-0.3019,-0.3079,-0.3121,-0.3139,-0.3187,-0.3145,-0.3152,-0.3201,-0.317,-0.3148,-0.3094,-0.3078,-0.3285,-0.3286,-0.3287,-0.3288,0,0,-0.2607,-0.2647,-0.264,-0.2663,-0.2724,-0.275,-0.2762,-0.2813,-0.2827,-0.2875,-0.2886,-0.2931,-0.2976,-0.2996,-0.306,-0.3024,-0.2947,-0.3071,-0.3071,-0.2974,-0.2856,-0.2791,-0.2767,-0.2992,-0.299,-0.2988,-0.2841,0,-0.2541,-0.2523,-0.2559,-0.2562,-0.2576,-0.266,-0.2674,-0.2724,-0.2771,-0.2798,-0.2829,-0.2864,-0.2917,-0.2947,-0.2918,-0.2978,-0.2904,-0.298,-0.2925,-0.2922,-0.2833,-0.2746,-0.2636,-0.2491,-0.2826,-0.2823,-0.2821,0,-0.2446,-0.2456,-0.2449,-0.2509,-0.252,-0.2532,-0.2583,-0.2611,-0.2658,-0.2694,-0.2709,-0.2766,-0.2755,-0.2805,-0.2768,-0.2821,-0.2806,-0.2814,-0.281,-0.2753,-0.2826,-0.2574,-0.2449,-0.2448,-0.2797,-0.2799,-0.28,0,-0.2349,-0.2375,-0.237,-0.2391,-0.2467,-0.2473,-0.2509,-0.2565,-0.2594,-0.2624,-0.2644,-0.2648,-0.2668,-0.2642,-0.2677,-0.272,-0.2616,-0.2688,-0.2582,-0.2578,-0.2469,-0.2459,-0.2294,-0.2585,-0.2585,-0.2586,-0.2586,0,-0.2266,-0.2259,-0.2324,-0.2328,-0.2327,-0.2399,-0.2403,-0.245,-0.2502,-0.2514,-0.258,-0.2581,-0.263,-0.2609,-0.2614,-0.2535,-0.2556,-0.251,-0.2518,-0.2444,-0.2434,-0.242,-0.2471,-0.258,-0.2582,-0.2583,-0.2584,0,-0.2159,-0.2203,-0.2206,-0.2269,-0.2285,-0.228,-0.2351,-0.2358,-0.2422,-0.2439,-0.2446,-0.2515,-0.2477,-0.249,-0.2458,-0.245,-0.2344,-0.235,-0.2245,-0.224,-0.2144,-0.2197,-0.2023,-0.1969,-0.2186,-0.2183,-0.2181,0,-0.21,-0.2091,-0.2147,-0.2147,-0.217,-0.2189,-0.2205,-0.2297,-0.2318,-0.2389,-0.2384,-0.2374,-0.2342,-0.2261,-0.2221,-0.2136,-0.2193,-0.2013,-0.2063,-0.2057,-0.2123,-0.2175,-0.2148,-0.189,-0.1885,-0.1882,-0.1879,0,-0.1989,-0.201,-0.2024,-0.2029,-0.2039,-0.2063,-0.2096,-0.2116,-0.2213,-0.2227,-0.2225,-0.2197,-0.2128,-0.2015,-0.1937,-0.1888,-0.1967,-0.1933,-0.1951,-0.186,-0.1879,-0.186,-0.2072,-0.1846,-0.1849,-0.1851,-0.1853,-0.1855,-0.189,-0.1875,-0.189,-0.1886,-0.1907,-0.1913,-0.1889,-0.1949,-0.196,-0.1954,-0.2024,-0.194,-0.1892,-0.1754,-0.1707,-0.1609,-0.169,-0.1591,-0.1646,-0.1692,-0.1649,-0.1767,-0.1555,-0.1556,-0.1558,-0.1559,-0.156,0,-0.1746,-0.1748,-0.1742,-0.1741,-0.1716,-0.177,-0.179,-0.1723,-0.169,-0.1704,-0.1674,-0.1625,-0.153,-0.151,-0.1435,-0.1371,-0.1359,-0.1353,-0.1403,-0.1383,-0.1478,-0.1477,-0.1209,-0.1209,-0.1209,-0.1209,-0.1209,-0.1209,-0.1663,-0.1612,-0.1622,-0.154,-0.1541,-0.1462,-0.1442,-0.1348,-0.1304,-0.1188,-0.1178,-0.1155,-0.1265,-0.1432,-0.1368,-0.1295,-0.1299,-0.1229,-0.1292,-0.1391,-0.1419,-0.1446,-0.1453,-0.1184,-0.1184,-0.1126,-0.1126,-0.1126]},{"header":{"parameterUnit":"m.s-1","parameterCategory":2,"la1":30.2991,"la2":30.254,"lo1":-89.0895,"lo2":-89.0444,"dy":0.0017,"dx":0.0017,"nx":28,"ny":28,"refTime":"2023-10-28T09:00:00:Z","depth":"0","parameterNumber":3,"parameterNumberName":"V-component_of_CURRENTS"},"data":[0,0,0,0,0,0,0,0,0,0,0,0,0,0,0,0,0,0,0,0,0,0,0,0,0,0,0,0,0,0,0,0,0,0,0,0,0,0,0,0,0,0,0,0,0,0,0,0,0,0,0,0,0,0,0,0,0,0,-0.0147,-0.0145,0,0.0081,0.0084,0.0087,0.0216,0.0216,0.0216,0.0216,0.0419,0.0424,0.0429,0,0,0,0,0,0,0,0,0,0,0,0,0,-0.0376,-0.0373,-0.0148,-0.0145,-0.0142,0.0081,0.0084,0.0087,0.0216,0.0216,0.0216,0.0217,0.0417,0.0423,0.0429,0,0,0,0,0,0,0,0,0,0,0,0,0,-0.0224,-0.0372,-0.0148,-0.0053,-0.0042,0.008,0.0084,0.0088,0.0216,0.0216,0.0216,0.0217,0.0415,0.0422,0.043,0.047,0,0,0.0454,0.0457,0,0,0,0,0,0,0,0,-0.0233,-0.0215,-0.0069,-0.0059,-0.0047,0.0119,0.0078,0.0214,0.0216,0.012,0.0216,0.0217,0.0314,0.033,0.0376,0.048,0.0488,0.0454,0.0459,0.0462,0.0464,0,0,0,0,0,0,0,-0.0244,-0.0224,-0.0055,-0.0067,-0.0053,0.0012,0.0033,0.0105,0.0213,0.0128,0.0138,0.016,0.0321,0.0368,0.0381,0.0491,0.0454,0.0461,0.0466,0.0469,0.0647,0.0647,0,0,0,0,0,0,-0.0281,-0.0234,-0.0062,-0.0048,-0.0143,0.0015,0.0039,0.0067,0.0213,0.0236,0.0159,0.0165,0.0354,0.0372,0.0389,0.0414,0.0462,0.0469,0.0474,0.0647,0.0647,0.0647,0,0,0,0,0,0,-0.0286,-0.0267,-0.0072,-0.0138,-0.0109,0.0017,0.0048,0.0071,0.0115,0.0237,0.0259,0.0178,0.0355,0.0378,0.0456,0.0424,0.0473,0.048,0.0646,0.0647,0.0647,0.0485,0,0,0,0,0,0,-0.0294,-0.0271,-0.0267,-0.0141,-0.0107,-0.0024,0.0048,0.0075,0.0127,0.0137,0.026,0.028,0.0357,0.0444,0.0464,0.0435,0.0486,0.0646,0.0646,0.0647,0.049,0.0479,0.047,0,0,0,0,0,-0.0303,-0.0303,-0.0268,-0.0247,-0.0104,-0.0025,-0.0003,0.0091,0.0127,0.0133,0.0232,0.0276,0.0459,0.0451,0.0474,0.0447,0.0646,0.0646,0.0647,0.0494,0.0481,0.047,0,0,0,0,0,0,-0.0403,-0.0286,-0.0246,-0.0211,-0.0137,-0.0005,0.0014,0.0077,0.0164,0.0171,0.0287,0.0314,0.0368,0.0439,0.0427,0.0502,0.0556,0.056,0.0432,0.0421,0.0411,0.0386,0.0492,0,0,0,0,0,-0.0425,-0.0391,-0.028,-0.0255,-0.0226,-0.011,-0.0067,-0.0007,0.0088,0.0127,0.0217,0.0312,0.0389,0.0428,0.0508,0.0552,0.0616,0.055,0.054,0.053,0.0529,0.0602,0.0598,0.0647,0.0647,0.0647,0,0,-0.0458,-0.0389,-0.037,-0.0274,-0.0207,-0.0169,-0.0083,-0.0033,-0.0001,0.0133,0.0195,0.028,0.0396,0.0447,0.0475,0.0499,0.0548,0.0531,0.0521,0.0526,0.0602,0.0597,0.0592,0.0648,0.0648,0.0648,0,0,-0.0501,-0.0449,-0.0432,-0.038,-0.0293,-0.0226,-0.0222,-0.0106,-0.006,0.0011,0.0113,0.018,0.0303,0.0376,0.043,0.0416,0.0494,0.0435,0.0362,0.0432,0.0427,0.0425,0.0478,0.0482,0.0427,0.0427,0.0427,0,-0.0547,-0.05,-0.0421,-0.0394,-0.036,-0.0263,-0.0248,-0.0189,-0.0063,-0.0025,0.0003,0.0188,0.0267,0.0345,0.0337,0.0387,0.0443,0.0388,0.0415,0.0414,0.0413,0.047,0.0476,0.0419,0.042,0.0421,0.0422,0,-0.0564,-0.0536,-0.053,-0.0461,-0.0425,-0.04,-0.0317,-0.028,-0.022,-0.0143,-0.0063,0.0054,0.0166,0.0187,0.0258,0.0297,0.0341,0.0389,0.0431,0.0398,0.0461,0.0469,0.0408,0.0411,0.0413,0.0415,0,0,-0.0624,-0.0556,-0.055,-0.0536,-0.0459,-0.0428,-0.0403,-0.0332,-0.03,-0.0215,-0.0159,-0.0054,0.0012,0.0079,0.0167,0.0218,0.0246,0.0289,0.0296,0.0318,0.0394,0.0435,0.0449,0.0299,0.03,0.0301,0.0429,0,-0.0655,-0.0639,-0.0588,-0.0581,-0.0568,-0.0497,-0.0474,-0.0409,-0.0339,-0.0268,-0.017,-0.0084,-0.003,0.0021,0.0074,0.0227,0.0267,0.0207,0.0446,0.0453,0.0474,0.046,0.051,0.063,0.0438,0.044,0.0441,0,-0.0668,-0.0657,-0.0662,-0.0629,-0.0618,-0.0606,-0.055,-0.0515,-0.0411,-0.0355,-0.0271,-0.0171,-0.0075,-0.0029,0.0163,0.0126,0.0235,0.0334,0.0342,0.0447,0.0511,0.0642,0.0654,0.0798,0.0455,0.0454,0.0453,0,-0.0725,-0.07,-0.0711,-0.0699,-0.0655,-0.065,-0.0625,-0.0542,-0.0505,-0.0403,-0.0358,-0.0226,-0.0138,-0.0002,0.0192,0.0184,0.0407,0.0431,0.0563,0.0567,0.0692,0.0705,0.0855,0.0544,0.0544,0.0543,0.0543,0,-0.0757,-0.0761,-0.0743,-0.0748,-0.0764,-0.0713,-0.0704,-0.0654,-0.0573,-0.0518,-0.0409,-0.0326,-0.0125,0.0032,0.0181,0.0405,0.0401,0.055,0.0606,0.0636,0.0642,0.0842,0.0888,0.0548,0.0547,0.0546,0.0545,0,-0.0796,-0.0783,-0.08,-0.0789,-0.0788,-0.0801,-0.0766,-0.0748,-0.067,-0.0595,-0.0565,-0.038,-0.0166,0.0033,0.0293,0.0409,0.0707,0.0682,0.0693,0.0746,0.0979,0.1014,0.1217,0.1317,0.0838,0.0839,0.0841,0,-0.081,-0.0824,-0.0845,-0.0865,-0.0862,-0.0871,-0.087,-0.0806,-0.0772,-0.0613,-0.0573,-0.0358,-0.0172,0.0202,0.0457,0.0722,0.082,0.0894,0.088,0.0999,0.108,0.1092,0.1162,0.098,0.0983,0.0985,0.0987,0,-0.0844,-0.0854,-0.0874,-0.0921,-0.0941,-0.0955,-0.0941,-0.0925,-0.0823,-0.0724,-0.0536,-0.0373,-0.0005,0.0348,0.0669,0.0819,0.1002,0.0944,0.1087,0.1214,0.1223,0.1344,0.0873,0.1005,0.1003,0.1002,0.1001,0.1,-0.0867,-0.0899,-0.0928,-0.0967,-0.0998,-0.1009,-0.0973,-0.0905,-0.0814,-0.0565,-0.0487,-0.0126,0.0253,0.0736,0.091,0.1252,0.1188,0.1339,0.1373,0.1375,0.1465,0.1014,0.1194,0.1194,0.1193,0.1193,0.1192,0,-0.0884,-0.0917,-0.0965,-0.1009,-0.1039,-0.1037,-0.0985,-0.086,-0.0679,-0.0426,-0.0184,0.032,0.0723,0.1086,0.1494,0.1671,0.1715,0.1744,0.1788,0.1843,0.1481,0.1481,0.1709,0.1709,0.1709,0.1708,0.1708,0.1708,-0.0894,-0.0937,-0.0965,-0.1019,-0.1043,-0.0969,-0.0907,-0.066,-0.041,0.0061,0.0446,0.0682,0.1063,0.1623,0.2007,0.2044,0.2209,0.2175,0.2262,0.2019,0.1984,0.1951,0.1964,0.2289,0.229,0.2632,0.2635,0.2638]}],[{"header":{"parameterUnit":"m.s-1","parameterCategory":2,"la1":30.2991,"la2":30.254,"lo1":-89.0895,"lo2":-89.0444,"dy":0.0017,"dx":0.0017,"nx":28,"ny":28,"refTime":"2023-10-28T09:00:00:Z","depth":"2","parameterNumber":2,"parameterNumberName":"U-component_of_CURRENTS"},"data":[0,0,0,0,0,0,0,0,0,0,0,0,0,0,0,0,0,0,0,0,0,0,0,0,0,0,0,0,0,0,0,0,0,0,0,0,0,0,0,0,0,0,0,0,0,0,0,0,0,0,0,0,0,0,0,0,0,0,-0.2529,-0.253,0,-0.2544,-0.2544,-0.2544,-0.2541,-0.2541,-0.2541,-0.2541,-0.258,-0.2581,-0.2582,0,0,0,0,0,0,0,0,0,0,0,0,0,-0.2409,-0.2411,-0.2529,-0.253,-0.253,-0.2544,-0.2544,-0.2543,-0.2541,-0.2541,-0.2541,-0.2541,-0.258,-0.2581,-0.2582,0,0,0,0,0,0,0,0,0,0,0,0,0,-0.2442,-0.2412,-0.2529,-0.2534,-0.2535,-0.2544,-0.2544,-0.2543,-0.2541,-0.2541,-0.2541,-0.2541,-0.258,-0.2581,-0.2582,-0.2586,0,0,-0.2586,-0.2587,0,0,0,0,0,0,0,0,-0.244,-0.2446,-0.2533,-0.2534,-0.2535,-0.2545,-0.2516,-0.256,-0.254,-0.2534,-0.2541,-0.2541,-0.2573,-0.2575,-0.2571,-0.2588,-0.259,-0.2586,-0.2587,-0.2588,-0.2588,0,0,0,0,0,0,0,-0.2438,-0.2444,-0.253,-0.2533,-0.2535,-0.2505,-0.251,-0.2523,-0.2549,-0.2534,-0.2535,-0.2544,-0.2574,-0.2569,-0.2572,-0.259,-0.2586,-0.2588,-0.2588,-0.2589,-0.2656,-0.2657,0,0,0,0,0,0,-0.245,-0.2443,-0.253,-0.2531,-0.2492,-0.2508,-0.2513,-0.2537,-0.2548,-0.2551,-0.2544,-0.2544,-0.2567,-0.257,-0.2573,-0.2599,-0.2588,-0.2589,-0.259,-0.2655,-0.2657,-0.2658,0,0,0,0,0,0,-0.2448,-0.2458,-0.2529,-0.249,-0.2497,-0.2511,-0.2537,-0.2538,-0.2547,-0.2556,-0.2559,-0.2555,-0.2567,-0.2571,-0.2597,-0.26,-0.259,-0.2591,-0.2654,-0.2656,-0.2657,-0.2637,0,0,0,0,0,0,-0.2444,-0.2458,-0.2472,-0.2491,-0.25,-0.2544,-0.2537,-0.2538,-0.2554,-0.2554,-0.2566,-0.2569,-0.2568,-0.2595,-0.2599,-0.2601,-0.2592,-0.2653,-0.2655,-0.2657,-0.2637,-0.2638,-0.2639,0,0,0,0,0,-0.244,-0.2455,-0.2473,-0.2484,-0.2523,-0.2545,-0.2547,-0.2552,-0.2554,-0.256,-0.2571,-0.257,-0.2609,-0.2597,-0.2601,-0.2604,-0.2652,-0.2654,-0.2656,-0.2636,-0.2637,-0.2639,0,0,0,0,0,0,-0.2406,-0.2457,-0.2477,-0.2508,-0.2534,-0.2547,-0.2546,-0.2561,-0.2572,-0.2571,-0.258,-0.2584,-0.2606,-0.2616,-0.2603,-0.2632,-0.2632,-0.2635,-0.2615,-0.2616,-0.2617,-0.2599,-0.2593,0,0,0,0,0,-0.2411,-0.2432,-0.248,-0.25,-0.2515,-0.2536,-0.2544,-0.2556,-0.2571,-0.2576,-0.2589,-0.2603,-0.2616,-0.2626,-0.2638,-0.2655,-0.2634,-0.2663,-0.2664,-0.2665,-0.2655,-0.2631,-0.2628,-0.2665,-0.2665,-0.2665,0,0,-0.2401,-0.243,-0.2442,-0.2493,-0.2506,-0.2523,-0.2539,-0.2556,-0.2566,-0.258,-0.2591,-0.2608,-0.2623,-0.2636,-0.2648,-0.2646,-0.2642,-0.2668,-0.2668,-0.2658,-0.2633,-0.2629,-0.2625,-0.2666,-0.2666,-0.2666,0,0,-0.2374,-0.2422,-0.2427,-0.2455,-0.2491,-0.2511,-0.2524,-0.2555,-0.2566,-0.259,-0.2598,-0.2616,-0.2643,-0.2646,-0.2652,-0.2671,-0.2649,-0.2687,-0.2674,-0.2651,-0.2646,-0.2642,-0.2596,-0.2588,-0.2687,-0.2686,-0.2686,0,-0.2356,-0.2382,-0.2429,-0.2441,-0.2458,-0.2509,-0.2517,-0.2538,-0.2573,-0.2578,-0.2594,-0.2621,-0.264,-0.2643,-0.2654,-0.2669,-0.2647,-0.2662,-0.2648,-0.2644,-0.264,-0.2593,-0.2585,-0.2686,-0.2686,-0.2686,-0.2686,0,-0.2335,-0.2361,-0.2364,-0.2403,-0.2429,-0.2444,-0.2494,-0.2519,-0.2546,-0.2562,-0.2582,-0.2606,-0.2619,-0.2636,-0.2652,-0.2643,-0.2631,-0.2648,-0.2635,-0.2634,-0.2586,-0.2577,-0.2685,-0.2685,-0.2685,-0.2685,0,0,-0.2275,-0.2336,-0.2336,-0.2353,-0.2413,-0.243,-0.2459,-0.2492,-0.2502,-0.2538,-0.2539,-0.2572,-0.2588,-0.2597,-0.2621,-0.2611,-0.257,-0.2622,-0.2621,-0.2557,-0.2496,-0.2424,-0.2407,-0.2582,-0.2581,-0.258,-0.2467,0,-0.2239,-0.2251,-0.2296,-0.2311,-0.2326,-0.239,-0.2411,-0.245,-0.2484,-0.2502,-0.2528,-0.254,-0.2573,-0.2582,-0.2578,-0.2584,-0.2549,-0.2598,-0.2523,-0.252,-0.244,-0.2395,-0.2231,-0.211,-0.2458,-0.2456,-0.2455,0,-0.2193,-0.2215,-0.222,-0.2275,-0.2287,-0.2303,-0.2349,-0.2378,-0.2422,-0.2447,-0.2466,-0.2493,-0.2499,-0.2526,-0.2497,-0.2528,-0.2503,-0.2497,-0.2492,-0.2423,-0.2431,-0.2173,-0.2081,-0.2441,-0.2442,-0.2443,-0.2444,0,-0.2116,-0.2158,-0.2159,-0.2179,-0.2249,-0.2258,-0.2293,-0.2346,-0.2372,-0.2405,-0.2421,-0.2434,-0.2443,-0.2425,-0.2431,-0.2459,-0.2382,-0.2415,-0.231,-0.2304,-0.2146,-0.2128,-0.2356,-0.2356,-0.2356,-0.2356,-0.2357,0,-0.2059,-0.2059,-0.2122,-0.2128,-0.2136,-0.22,-0.2212,-0.2257,-0.2307,-0.2318,-0.238,-0.2381,-0.2421,-0.24,-0.2394,-0.2315,-0.2342,-0.2279,-0.2263,-0.2135,-0.2119,-0.2405,-0.2412,-0.2352,-0.2353,-0.2354,-0.2354,0,-0.1969,-0.2011,-0.202,-0.2083,-0.21,-0.2102,-0.2172,-0.218,-0.2243,-0.2259,-0.2268,-0.2328,-0.229,-0.2301,-0.2265,-0.2252,-0.2196,-0.2154,-0.1992,-0.1959,-0.2138,-0.2146,-0.2012,-0.2008,-0.2005,-0.2003,-0.2,0,-0.1921,-0.1915,-0.1972,-0.1976,-0.2,-0.2025,-0.2042,-0.2129,-0.2148,-0.2213,-0.2207,-0.22,-0.2159,-0.2082,-0.2036,-0.1955,-0.2065,-0.1787,-0.1811,-0.2101,-0.2099,-0.2112,-0.2124,-0.1587,-0.1581,-0.1577,-0.1573,0,-0.1827,-0.1847,-0.1861,-0.1872,-0.1886,-0.1912,-0.1946,-0.1963,-0.2051,-0.206,-0.2051,-0.2019,-0.1949,-0.1801,-0.1728,-0.1676,-0.1794,-0.1694,-0.2009,-0.1717,-0.1695,-0.1696,-0.1722,-0.1534,-0.1538,-0.1541,-0.1543,-0.1545,-0.1742,-0.173,-0.1744,-0.1746,-0.1768,-0.1773,-0.1741,-0.1792,-0.1795,-0.1777,-0.1844,-0.1735,-0.1721,-0.1501,-0.1425,-0.1376,-0.1502,-0.1467,-0.1482,-0.1501,-0.149,-0.1466,-0.1257,-0.126,-0.1262,-0.1263,-0.1265,0,-0.1618,-0.1617,-0.1614,-0.1613,-0.1584,-0.1637,-0.1648,-0.1588,-0.1532,-0.1549,-0.1505,-0.1331,-0.122,-0.1209,-0.1062,-0.1051,-0.1058,-0.1024,-0.1039,-0.1077,-0.1111,-0.1082,-0.074,-0.0739,-0.0738,-0.0737,0,0,-0.1546,-0.1498,-0.1503,-0.1419,-0.1413,-0.1311,-0.128,-0.1227,-0.1201,-0.1112,-0.1057,-0.1124,-0.1148,-0.0944,-0.0901,-0.0795,-0.0928,-0.075,-0.1164,-0.1216,-0.1248,-0.1349,-0.1345,0,0,0,0,0]},{"header":{"parameterUnit":"m.s-1","parameterCategory":2,"la1":30.2991,"la2":30.254,"lo1":-89.0895,"lo2":-89.0444,"dy":0.0017,"dx":0.0017,"nx":28,"ny":28,"refTime":"2023-10-28T09:00:00:Z","depth":"2","parameterNumber":3,"parameterNumberName":"V-component_of_CURRENTS"},"data":[0,0,0,0,0,0,0,0,0,0,0,0,0,0,0,0,0,0,0,0,0,0,0,0,0,0,0,0,0,0,0,0,0,0,0,0,0,0,0,0,0,0,0,0,0,0,0,0,0,0,0,0,0,0,0,0,0,0,-0.0228,-0.0227,0,-0.0085,-0.0083,-0.0082,0.0005,0.0006,0.0006,0.0006,0.0161,0.0165,0.0169,0,0,0,0,0,0,0,0,0,0,0,0,0,-0.0383,-0.0381,-0.0228,-0.0227,-0.0225,-0.0085,-0.0083,-0.0081,0.0005,0.0006,0.0006,0.0007,0.016,0.0165,0.0169,0,0,0,0,0,0,0,0,0,0,0,0,0,-0.0286,-0.038,-0.0229,-0.0165,-0.0157,-0.0085,-0.0083,-0.0081,0.0005,0.0006,0.0006,0.0007,0.0159,0.0164,0.017,0.019,0,0,0.0187,0.0189,0,0,0,0,0,0,0,0,-0.0292,-0.028,-0.0176,-0.0169,-0.0161,-0.0057,-0.008,0.0011,0.0005,-0.0057,0.0006,0.0007,0.0089,0.0101,0.0125,0.0198,0.0204,0.0187,0.019,0.0193,0.0194,0,0,0,0,0,0,0,-0.0298,-0.0286,-0.0172,-0.0174,-0.0165,-0.0127,-0.0113,-0.0063,0.001,-0.0052,-0.0045,-0.0029,0.0094,0.012,0.013,0.0206,0.0187,0.0192,0.0195,0.0197,0.0327,0.0327,0,0,0,0,0,0,-0.0318,-0.0292,-0.0177,-0.0168,-0.0225,-0.0125,-0.011,-0.0091,0.001,0.0026,-0.0029,-0.0025,0.011,0.0123,0.0135,0.0175,0.0193,0.0198,0.0201,0.0327,0.0327,0.0327,0,0,0,0,0,0,-0.0322,-0.0309,-0.0182,-0.0227,-0.0208,-0.0124,-0.0103,-0.0089,-0.0061,0.0027,0.0043,-0.0017,0.0111,0.0128,0.0184,0.0181,0.02,0.0206,0.0327,0.0327,0.0327,0.0249,0,0,0,0,0,0,-0.0327,-0.0311,-0.0311,-0.0228,-0.0206,-0.0146,-0.0103,-0.0086,-0.0052,-0.0045,0.0043,0.0058,0.0113,0.0175,0.0189,0.0189,0.021,0.0327,0.0327,0.0327,0.0251,0.0246,0.0242,0,0,0,0,0,-0.0333,-0.0334,-0.0312,-0.0298,-0.0206,-0.0146,-0.0132,-0.007,-0.0052,-0.0043,0.0019,0.0055,0.0187,0.018,0.0197,0.0198,0.0326,0.0327,0.0327,0.0253,0.0247,0.0242,0,0,0,0,0,0,-0.0405,-0.0323,-0.0297,-0.0274,-0.0219,-0.0132,-0.0119,-0.0079,-0.0023,-0.0019,0.006,0.008,0.0127,0.0173,0.0164,0.0236,0.0261,0.0264,0.0199,0.0194,0.019,0.0171,0.0214,0,0,0,0,0,-0.0422,-0.0398,-0.0318,-0.0303,-0.0278,-0.0203,-0.0174,-0.0132,-0.0068,-0.0043,0.002,0.0085,0.0141,0.0174,0.023,0.027,0.0313,0.0281,0.0276,0.0272,0.0269,0.0332,0.0333,0.0328,0.0328,0.0328,0,0,-0.0449,-0.0399,-0.0387,-0.0316,-0.027,-0.0239,-0.0184,-0.0146,-0.012,-0.0036,0.001,0.0069,0.0148,0.0195,0.022,0.0234,0.0295,0.0272,0.0268,0.0268,0.0333,0.0333,0.0334,0.0328,0.0328,0.0328,0,0,-0.0483,-0.0445,-0.0433,-0.0391,-0.0325,-0.0276,-0.027,-0.0188,-0.0152,-0.0101,-0.0035,0.0023,0.0107,0.0168,0.0208,0.0211,0.0266,0.0224,0.0191,0.0252,0.0253,0.0254,0.0297,0.0303,0.0224,0.0224,0.0224,0,-0.0519,-0.0487,-0.0424,-0.0401,-0.0375,-0.0299,-0.0286,-0.0239,-0.0149,-0.012,-0.0099,0.0034,0.0096,0.0165,0.0167,0.02,0.0237,0.0203,0.0244,0.0247,0.0249,0.0294,0.0302,0.0221,0.0221,0.0221,0.0222,0,-0.0533,-0.0513,-0.0506,-0.045,-0.0419,-0.0396,-0.0325,-0.0291,-0.0245,-0.0187,-0.0116,-0.0026,0.0054,0.0081,0.0127,0.0178,0.0198,0.0227,0.0253,0.0245,0.0293,0.0302,0.0215,0.0217,0.0218,0.0219,0,0,-0.0589,-0.0529,-0.0525,-0.0514,-0.0443,-0.0418,-0.0386,-0.0324,-0.0298,-0.0219,-0.0174,-0.0077,-0.0026,0.0022,0.009,0.0145,0.0193,0.0185,0.019,0.0218,0.0315,0.0329,0.0341,0.0227,0.0229,0.023,0.0337,0,-0.0616,-0.0601,-0.0556,-0.0547,-0.0534,-0.0469,-0.0444,-0.0384,-0.0322,-0.0261,-0.0166,-0.0101,-0.0049,-0.0012,0.0051,0.0164,0.0215,0.016,0.0329,0.0333,0.0339,0.0352,0.0318,0.041,0.0346,0.0347,0.0349,0,-0.063,-0.062,-0.0622,-0.059,-0.0579,-0.0567,-0.0515,-0.048,-0.0383,-0.0334,-0.0253,-0.0173,-0.0073,-0.0034,0.0139,0.01,0.0194,0.0276,0.0283,0.033,0.0365,0.0413,0.043,0.0365,0.0363,0.0362,0.0361,0,-0.0684,-0.066,-0.0669,-0.0657,-0.0612,-0.0608,-0.0583,-0.0506,-0.0474,-0.0379,-0.0342,-0.0215,-0.0142,-0.0013,0.0154,0.0147,0.0343,0.0359,0.0458,0.046,0.0483,0.0484,0.0471,0.0471,0.0471,0.0471,0.047,0,-0.0714,-0.0718,-0.07,-0.0703,-0.0719,-0.0669,-0.0663,-0.0615,-0.0542,-0.0498,-0.0388,-0.0317,-0.0132,0.0006,0.0143,0.0331,0.0337,0.0455,0.0494,0.0454,0.0451,0.0454,0.0451,0.0475,0.0474,0.0473,0.0472,0,-0.0754,-0.074,-0.0755,-0.0743,-0.0742,-0.0755,-0.0725,-0.0711,-0.064,-0.0578,-0.0553,-0.0383,-0.0199,-0.0015,0.0215,0.032,0.0494,0.0556,0.0487,0.0515,0.0568,0.056,0.067,0.0672,0.0673,0.0674,0.0675,0,-0.0769,-0.0781,-0.0799,-0.0819,-0.0816,-0.0826,-0.0827,-0.0769,-0.0741,-0.0607,-0.0574,-0.0392,-0.0235,0.0092,0.0311,0.0545,0.055,0.0629,0.0613,0.0565,0.0591,0.0581,0.0571,0.0611,0.0611,0.0612,0.0612,0,-0.0803,-0.0813,-0.0831,-0.0876,-0.0897,-0.0912,-0.0903,-0.0895,-0.0807,-0.0727,-0.0575,-0.0442,-0.0131,0.0137,0.0416,0.0542,0.0585,0.0641,0.0636,0.0558,0.0516,0.0539,0.053,0.0614,0.0614,0.0614,0.0614,0.0613,-0.0832,-0.0862,-0.0889,-0.0928,-0.0959,-0.0978,-0.0979,-0.094,-0.0877,-0.0731,-0.0589,-0.0366,-0.0117,0.0292,0.0491,0.0652,0.0655,0.0687,0.0684,0.0681,0.0647,0.0609,0.0717,0.0718,0.0718,0.0718,0.0718,0,-0.0857,-0.0887,-0.0932,-0.0979,-0.1017,-0.1014,-0.1007,-0.0976,-0.0892,-0.0732,-0.0555,-0.0258,0.0037,0.0279,0.0548,0.0713,0.069,0.0719,0.0665,0.0662,0.066,0.0622,0.0688,0.0688,0.0689,0.0689,0,0,-0.0873,-0.0916,-0.094,-0.1008,-0.1039,-0.1058,-0.1049,-0.0979,-0.0868,-0.0684,-0.0508,-0.0265,0.0038,0.0227,0.0438,0.0569,0.0561,0.0566,0.0573,0.048,0.0476,0.0624,0.0561,0,0,0,0,0]}],[{"header":{"parameterUnit":"m.s-1","parameterCategory":2,"la1":30.2991,"la2":30.254,"lo1":-89.0895,"lo2":-89.0444,"dy":0.0017,"dx":0.0017,"nx":28,"ny":28,"refTime":"2023-10-28T09:00:00:Z","depth":"4","parameterNumber":2,"parameterNumberName":"U-component_of_CURRENTS"},"data":[0,0,0,0,0,0,0,0,0,0,0,0,0,0,0,0,0,0,0,0,0,0,0,0,0,0,0,0,0,0,0,0,0,0,0,0,0,0,0,0,0,0,0,0,0,0,0,0,0,0,0,0,0,0,0,0,0,0,-0.1684,-0.1684,0,-0.1711,-0.1711,-0.1711,-0.1725,-0.1726,-0.1726,-0.1727,-0.1734,-0.1733,-0.1733,0,0,0,0,0,0,0,0,0,0,0,0,0,-0.1567,-0.1569,-0.1683,-0.1684,-0.1685,-0.1711,-0.1711,-0.1711,-0.1725,-0.1726,-0.1726,-0.1727,-0.1734,-0.1733,-0.1733,0,0,0,0,0,0,0,0,0,0,0,0,0,-0.1603,-0.157,-0.1683,-0.17,-0.1702,-0.1711,-0.1711,-0.1711,-0.1725,-0.1726,-0.1726,-0.1727,-0.1734,-0.1733,-0.1733,-0.1714,0,0,-0.1732,-0.1731,0,0,0,0,0,0,0,0,-0.1601,-0.1607,-0.1696,-0.1699,-0.1701,-0.1721,-0.1673,-0.1713,-0.1725,-0.171,-0.1727,-0.1728,-0.1731,-0.173,-0.1726,-0.1714,-0.1715,-0.1732,-0.1731,-0.1731,-0.1731,0,0,0,0,0,0,0,-0.1599,-0.1605,-0.1689,-0.1697,-0.17,-0.168,-0.1686,-0.168,-0.1711,-0.1711,-0.1714,-0.1726,-0.1731,-0.1726,-0.1726,-0.1715,-0.1732,-0.1731,-0.1731,-0.1731,-0.178,-0.1781,0,0,0,0,0,0,-0.161,-0.1603,-0.1688,-0.169,-0.1658,-0.1682,-0.1689,-0.1709,-0.1711,-0.1714,-0.1725,-0.1726,-0.1727,-0.1727,-0.1727,-0.1793,-0.1731,-0.1731,-0.173,-0.1778,-0.178,-0.1782,0,0,0,0,0,0,-0.1608,-0.1618,-0.1687,-0.1651,-0.1659,-0.1684,-0.1706,-0.1709,-0.1742,-0.1723,-0.1724,-0.1761,-0.1727,-0.1727,-0.175,-0.179,-0.173,-0.173,-0.1776,-0.1779,-0.1781,-0.1869,0,0,0,0,0,0,-0.1604,-0.1617,-0.1646,-0.1652,-0.1662,-0.1719,-0.1706,-0.1709,-0.1749,-0.1752,-0.1753,-0.1753,-0.1728,-0.1751,-0.175,-0.1789,-0.173,-0.1774,-0.1777,-0.178,-0.1865,-0.1875,-0.1883,0,0,0,0,0,-0.16,-0.1634,-0.1647,-0.1658,-0.1698,-0.1721,-0.1724,-0.1738,-0.1751,-0.177,-0.1771,-0.1754,-0.1769,-0.1752,-0.175,-0.179,-0.1773,-0.1776,-0.178,-0.186,-0.1873,-0.1883,0,0,0,0,0,0,-0.1593,-0.164,-0.1654,-0.17,-0.1723,-0.1726,-0.1751,-0.1763,-0.1779,-0.179,-0.1769,-0.1768,-0.1805,-0.1784,-0.1766,-0.1813,-0.1771,-0.1774,-0.1833,-0.1844,-0.1853,-0.1838,-0.1729,0,0,0,0,0,-0.1608,-0.165,-0.1679,-0.1717,-0.1736,-0.1751,-0.1769,-0.1781,-0.1792,-0.1802,-0.1804,-0.1806,-0.1811,-0.1819,-0.1816,-0.1838,-0.1798,-0.1865,-0.1874,-0.1882,-0.1869,-0.185,-0.1856,-0.1793,-0.1793,-0.1793,0,0,-0.1615,-0.1647,-0.1671,-0.172,-0.1738,-0.1761,-0.1763,-0.1803,-0.1824,-0.1799,-0.1837,-0.1842,-0.1825,-0.1852,-0.1867,-0.1844,-0.1881,-0.1887,-0.1894,-0.1875,-0.1855,-0.186,-0.1866,-0.1796,-0.1795,-0.1795,0,0,-0.1626,-0.1682,-0.171,-0.1737,-0.1782,-0.1794,-0.1818,-0.1847,-0.1869,-0.1902,-0.1893,-0.1921,-0.193,-0.1924,-0.192,-0.1978,-0.1933,-0.1993,-0.2027,-0.201,-0.2015,-0.2018,-0.198,-0.198,-0.1996,-0.1997,-0.1997,0,-0.163,-0.1671,-0.172,-0.1746,-0.177,-0.1816,-0.1836,-0.1865,-0.1898,-0.191,-0.1929,-0.1952,-0.1957,-0.197,-0.2001,-0.2,-0.1973,-0.1987,-0.2021,-0.2023,-0.2025,-0.1986,-0.1984,-0.2001,-0.2001,-0.2,-0.2,0,-0.1645,-0.1689,-0.171,-0.1761,-0.1794,-0.1827,-0.1872,-0.1913,-0.1955,-0.1969,-0.2014,-0.2026,-0.2029,-0.2057,-0.205,-0.2076,-0.2047,-0.2037,-0.199,-0.2037,-0.1992,-0.1989,-0.2008,-0.2006,-0.2005,-0.2004,0,0,-0.1619,-0.1702,-0.1712,-0.1736,-0.1808,-0.183,-0.1886,-0.1927,-0.1954,-0.201,-0.2031,-0.2079,-0.2092,-0.2088,-0.2098,-0.2103,-0.2116,-0.2088,-0.2084,-0.2044,-0.2065,-0.1937,-0.192,-0.2116,-0.2116,-0.2116,-0.203,0,-0.1612,-0.1654,-0.1705,-0.175,-0.1774,-0.1839,-0.1879,-0.1929,-0.1976,-0.2011,-0.2049,-0.2075,-0.2102,-0.2118,-0.2132,-0.2118,-0.211,-0.2139,-0.2029,-0.2024,-0.1901,-0.1913,-0.2115,-0.2027,-0.2026,-0.2025,-0.2024,0,-0.1597,-0.1634,-0.1671,-0.1741,-0.176,-0.1797,-0.1866,-0.1908,-0.1969,-0.2004,-0.2043,-0.2066,-0.2097,-0.2114,-0.2102,-0.2121,-0.2097,-0.2086,-0.2082,-0.1922,-0.1889,-0.1968,-0.2017,-0.2017,-0.2018,-0.2018,-0.2019,0,-0.1534,-0.1607,-0.1636,-0.1662,-0.1748,-0.1782,-0.1832,-0.19,-0.1935,-0.1995,-0.2017,-0.2052,-0.207,-0.2062,-0.206,-0.208,-0.2026,-0.2038,-0.1892,-0.1882,-0.1984,-0.1981,-0.2007,-0.2007,-0.2007,-0.2008,-0.2008,0,-0.149,-0.1519,-0.1614,-0.1632,-0.1676,-0.1748,-0.1794,-0.185,-0.1915,-0.1932,-0.2006,-0.2009,-0.2063,-0.2048,-0.2039,-0.1941,-0.1999,-0.1879,-0.1847,-0.2025,-0.2028,-0.1981,-0.1979,-0.2004,-0.2005,-0.2006,-0.2006,0,-0.1408,-0.1471,-0.1514,-0.1612,-0.1646,-0.1677,-0.1777,-0.1797,-0.1875,-0.1898,-0.1916,-0.1976,-0.1939,-0.1958,-0.1929,-0.1887,-0.1823,-0.1771,-0.1941,-0.1924,-0.1694,-0.1698,-0.1585,-0.158,-0.1575,-0.1572,-0.1568,0,-0.1364,-0.1378,-0.1488,-0.1515,-0.1564,-0.1628,-0.1662,-0.1764,-0.1782,-0.1852,-0.184,-0.1845,-0.1861,-0.1703,-0.1751,-0.1681,-0.1674,-0.1635,-0.1685,-0.1668,-0.1649,-0.166,-0.167,-0.1561,-0.156,-0.1559,-0.1558,0,-0.128,-0.1332,-0.137,-0.1426,-0.1474,-0.152,-0.1579,-0.1581,-0.1671,-0.1759,-0.17,-0.167,-0.1619,-0.1593,-0.1545,-0.1511,-0.1663,-0.1589,-0.1598,-0.1645,-0.1638,-0.1626,-0.1641,-0.1542,-0.1544,-0.1546,-0.1547,0,-0.1216,-0.1223,-0.1277,-0.1313,-0.1373,-0.138,-0.1434,-0.144,-0.1472,-0.1558,-0.1527,-0.1533,-0.1584,-0.1501,-0.1461,-0.1409,-0.1399,-0.1378,-0.1399,-0.1417,-0.1406,-0.1376,-0.1152,0,0,0,0,0,-0.1141,-0.1131,-0.1157,-0.1187,-0.1241,-0.1268,-0.1357,-0.141,-0.15,-0.1412,-0.1467,-0.1406,-0.1339,-0.1355,-0.1262,-0.1391,-0.1411,-0.1283,-0.1402,-0.1455,-0.1473,-0.1479,0,0,0,0,0,0,-0.1085,-0.1103,-0.1111,-0.107,-0.106,-0.1098,-0.1145,-0.1211,-0.1179,-0.1274,-0.1236,-0.1315,-0.1264,-0.1342,-0.1222,-0.1228,-0.1277,-0.1304,-0.13,-0.1445,-0.1462,-0.1476,-0.1488,0,0,0,0,0]},{"header":{"parameterUnit":"m.s-1","parameterCategory":2,"la1":30.2991,"la2":30.254,"lo1":-89.0895,"lo2":-89.0444,"dy":0.0017,"dx":0.0017,"nx":28,"ny":28,"refTime":"2023-10-28T09:00:00:Z","depth":"4","parameterNumber":3,"parameterNumberName":"V-component_of_CURRENTS"},"data":[0,0,0,0,0,0,0,0,0,0,0,0,0,0,0,0,0,0,0,0,0,0,0,0,0,0,0,0,0,0,0,0,0,0,0,0,0,0,0,0,0,0,0,0,0,0,0,0,0,0,0,0,0,0,0,0,0,0,-0.0182,-0.0182,0,-0.0097,-0.0096,-0.0095,-0.0043,-0.0043,-0.0043,-0.0042,0.0036,0.0038,0.004,0,0,0,0,0,0,0,0,0,0,0,0,0,-0.0262,-0.0261,-0.0183,-0.0181,-0.018,-0.0097,-0.0096,-0.0094,-0.0043,-0.0043,-0.0042,-0.0042,0.0036,0.0038,0.004,0,0,0,0,0,0,0,0,0,0,0,0,0,-0.0208,-0.0261,-0.0183,-0.0144,-0.014,-0.0097,-0.0096,-0.0094,-0.0043,-0.0043,-0.0042,-0.0042,0.0035,0.0038,0.0041,0.0049,0,0,0.0049,0.005,0,0,0,0,0,0,0,0,-0.0211,-0.0205,-0.0151,-0.0147,-0.0142,-0.008,-0.0095,-0.0046,-0.0043,-0.008,-0.0042,-0.0042,-0.0003,0.0003,0.0018,0.0053,0.0056,0.0049,0.0051,0.0052,0.0053,0,0,0,0,0,0,0,-0.0215,-0.0208,-0.0149,-0.015,-0.0144,-0.0118,-0.011,-0.0085,-0.0046,-0.0077,-0.0073,-0.0063,-0.0001,0.0015,0.002,0.0057,0.0049,0.0052,0.0053,0.0054,0.0126,0.0127,0,0,0,0,0,0,-0.0227,-0.0212,-0.0152,-0.0146,-0.0176,-0.0117,-0.0108,-0.0101,-0.0046,-0.0037,-0.0063,-0.0061,0.001,0.0016,0.0023,0.0057,0.0052,0.0055,0.0056,0.0126,0.0126,0.0127,0,0,0,0,0,0,-0.0229,-0.0223,-0.0155,-0.0177,-0.0166,-0.0116,-0.0108,-0.0099,-0.0084,-0.0035,-0.0026,-0.0057,0.001,0.0019,0.0052,0.006,0.0056,0.0058,0.0126,0.0126,0.0127,0.0113,0,0,0,0,0,0,-0.0232,-0.0224,-0.0229,-0.0178,-0.0165,-0.0132,-0.0108,-0.0098,-0.0078,-0.0074,-0.0027,-0.0019,0.0011,0.0047,0.0054,0.0064,0.0061,0.0125,0.0126,0.0126,0.0113,0.0113,0.0113,0,0,0,0,0,-0.0235,-0.024,-0.023,-0.0223,-0.0172,-0.0132,-0.0123,-0.0086,-0.0078,-0.0072,-0.0036,-0.002,0.0055,0.005,0.0058,0.0068,0.0125,0.0126,0.0126,0.0113,0.0113,0.0113,0,0,0,0,0,0,-0.0279,-0.0234,-0.0221,-0.0214,-0.0178,-0.0123,-0.0117,-0.0093,-0.006,-0.0059,-0.0015,-0.0004,0.0028,0.0046,0.0039,0.009,0.0092,0.0094,0.0079,0.0079,0.0079,0.006,0.0063,0,0,0,0,0,-0.0292,-0.0285,-0.0235,-0.0232,-0.0216,-0.017,-0.0153,-0.0126,-0.0087,-0.0073,-0.0036,-0.0001,0.0036,0.0055,0.0087,0.0112,0.0134,0.0123,0.0123,0.0123,0.0113,0.0166,0.017,0.0129,0.0129,0.0129,0,0,-0.0312,-0.0284,-0.0283,-0.0241,-0.0213,-0.0192,-0.0159,-0.0134,-0.0116,-0.0071,-0.004,-0.0002,0.0042,0.0078,0.0093,0.0095,0.0145,0.0123,0.0123,0.0113,0.0167,0.0171,0.0174,0.0129,0.0129,0.0129,0,0,-0.0337,-0.032,-0.0318,-0.029,-0.0248,-0.0216,-0.0213,-0.0159,-0.0135,-0.0101,-0.0059,-0.0014,0.003,0.0077,0.0103,0.0117,0.0142,0.0122,0.0109,0.0161,0.0165,0.0168,0.0198,0.0204,0.0123,0.0123,0.0123,0,-0.0363,-0.0349,-0.0312,-0.0297,-0.0281,-0.0231,-0.0223,-0.0189,-0.0131,-0.0111,-0.0099,-0.0008,0.0033,0.0089,0.0099,0.0118,0.0139,0.0108,0.0161,0.0165,0.0169,0.0199,0.0206,0.0122,0.0122,0.0122,0.0123,0,-0.0374,-0.0368,-0.0364,-0.033,-0.0309,-0.0295,-0.0243,-0.0219,-0.0188,-0.0147,-0.0091,-0.0026,0.0026,0.0053,0.0082,0.0133,0.0136,0.0155,0.0161,0.0172,0.0203,0.0211,0.0121,0.0122,0.0122,0.0122,0,0,-0.0417,-0.0381,-0.0381,-0.0376,-0.0327,-0.0311,-0.0283,-0.0237,-0.0221,-0.0158,-0.0126,-0.0043,-0.0007,0.0024,0.0076,0.0126,0.0181,0.0146,0.0149,0.0173,0.0278,0.0246,0.0251,0.0209,0.0211,0.0212,0.0287,0,-0.0436,-0.043,-0.0402,-0.0399,-0.0391,-0.0346,-0.0326,-0.0281,-0.0236,-0.0192,-0.0111,-0.0065,-0.0018,0.0008,0.0069,0.0152,0.0201,0.0158,0.0265,0.0268,0.0236,0.0259,0.0216,0.0293,0.0295,0.0296,0.0297,0,-0.0447,-0.0444,-0.0451,-0.0434,-0.0427,-0.0422,-0.0387,-0.0361,-0.0286,-0.025,-0.0184,-0.0123,-0.0035,-0.0002,0.0142,0.011,0.0186,0.0251,0.0256,0.0233,0.025,0.0281,0.0312,0.0311,0.0309,0.0309,0.0308,0,-0.0484,-0.0474,-0.0487,-0.048,-0.0453,-0.0456,-0.0441,-0.0384,-0.0362,-0.0291,-0.0266,-0.0156,-0.0103,0.001,0.0145,0.0143,0.0298,0.0315,0.0358,0.0357,0.0369,0.0364,0.0413,0.0413,0.0413,0.0413,0.0413,0,-0.05,-0.0511,-0.0514,-0.0519,-0.0541,-0.0507,-0.0513,-0.0477,-0.0427,-0.0398,-0.0306,-0.0254,-0.0097,0.0013,0.0132,0.0264,0.0291,0.0354,0.0377,0.036,0.0354,0.0374,0.0369,0.0416,0.0415,0.0415,0.0414,0,-0.0523,-0.0523,-0.0545,-0.0551,-0.0558,-0.0576,-0.057,-0.0565,-0.0515,-0.0475,-0.0455,-0.0322,-0.0181,-0.0026,0.0162,0.0236,0.0372,0.0414,0.037,0.039,0.0396,0.0389,0.0459,0.0458,0.0458,0.0458,0.0457,0,-0.0529,-0.0544,-0.0582,-0.0608,-0.0616,-0.064,-0.065,-0.0615,-0.0597,-0.0506,-0.0481,-0.035,-0.0247,-0.0003,0.0149,0.0352,0.0384,0.0432,0.0426,0.0387,0.0403,0.0396,0.039,0.0457,0.0457,0.0457,0.0457,0,-0.0546,-0.0569,-0.0592,-0.0649,-0.0682,-0.0707,-0.0714,-0.0707,-0.0649,-0.0612,-0.0484,-0.0351,-0.0195,-0.0006,0.0145,0.0297,0.0387,0.0429,0.0431,0.0425,0.0385,0.04,0.0394,0.0455,0.0455,0.0456,0.0456,0,-0.0566,-0.0594,-0.0634,-0.0679,-0.0728,-0.0751,-0.0753,-0.0711,-0.0683,-0.0571,-0.0529,-0.0347,-0.0235,-0.0034,0.0115,0.0245,0.0276,0.0305,0.0314,0.0317,0.025,0.0177,0.0203,0,0,0,0,0,-0.0576,-0.0607,-0.0655,-0.0706,-0.0756,-0.0776,-0.0779,-0.0765,-0.0714,-0.0628,-0.0571,-0.0415,-0.0187,-0.0078,0.0049,0.0087,0.0277,0.0234,0.0309,0.0448,0.045,0.0391,0,0,0,0,0,0,-0.0586,-0.0632,-0.0654,-0.0717,-0.0752,-0.0796,-0.0799,-0.0765,-0.0698,-0.0627,-0.0493,-0.0412,-0.018,-0.0257,0.0044,0.0084,0.0141,0.035,0.0352,0.0447,0.0449,0.045,0.039,0,0,0,0,0]}]]